�������l�o���
Date,Time,MP-1(��Sv/h),MP-2(��Sv/h),MP-3(��Sv/h),MP-4(��Sv/h),MP-5(��Sv/h),MP-6(��Sv/h),MP-7(��Sv/h),����,����(m/s),���J
2019/05/28,00:00,0.198,0.183,0.306,0.289,0.276,0.151,0.094,��,4.0,��
2019/05/28,00:10,0.198,0.181,0.306,0.287,0.277,0.151,0.094,��,4.1,��
2019/05/28,00:20,0.199,0.182,0.305,0.289,0.275,0.152,0.094,��,3.7,��
2019/05/28,00:30,0.198,0.181,0.307,0.288,0.276,0.152,0.094,��,3.7,��
2019/05/28,00:40,0.198,0.183,0.306,0.289,0.275,0.152,0.094,��쐼,4.1,��
2019/05/28,00:50,0.199,0.183,0.307,0.288,0.279,0.152,0.094,��쐼,4.8,��
2019/05/28,01:00,0.198,0.182,0.305,0.288,0.275,0.152,0.095,��,5.1,��
2019/05/28,01:10,0.199,0.183,0.307,0.286,0.277,0.151,0.094,��,5.4,��
2019/05/28,01:20,0.198,0.181,0.305,0.289,0.275,0.152,0.094,��쐼,5.1,��
2019/05/28,01:30,0.199,0.183,0.306,0.286,0.276,0.152,0.094,��쐼,4.4,��
2019/05/28,01:40,0.199,0.183,0.305,0.289,0.275,0.152,0.094,��쐼,4.8,��
2019/05/28,01:50,0.201,0.183,0.308,0.287,0.277,0.153,0.094,��쐼,5.3,��
2019/05/28,02:00,0.199,0.183,0.305,0.288,0.275,0.152,0.095,��,5.3,��
2019/05/28,02:10,0.200,0.182,0.308,0.288,0.278,0.152,0.094,��,6.0,��
2019/05/28,02:20,0.201,0.183,0.306,0.287,0.276,0.152,0.094,��,7.0,��
2019/05/28,02:30,0.199,0.182,0.306,0.289,0.277,0.152,0.094,��,6.4,��
2019/05/28,02:40,0.199,0.182,0.306,0.288,0.277,0.152,0.094,��,5.7,��
2019/05/28,02:50,0.198,0.182,0.307,0.288,0.278,0.152,0.095,��,6.3,��
2019/05/28,03:00,0.199,0.182,0.306,0.287,0.276,0.151,0.094,��,8.1,��
2019/05/28,03:10,0.199,0.182,0.307,0.288,0.278,0.152,0.094,��,8.2,��
2019/05/28,03:20,0.199,0.181,0.305,0.287,0.277,0.152,0.094,��,8.5,��
2019/05/28,03:30,0.198,0.181,0.307,0.288,0.277,0.151,0.094,��,8.9,��
2019/05/28,03:40,0.199,0.183,0.308,0.286,0.277,0.152,0.094,��,9.2,��
2019/05/28,03:50,0.197,0.182,0.305,0.289,0.277,0.151,0.094,��,7.3,��
2019/05/28,04:00,0.201,0.182,0.308,0.286,0.276,0.151,0.094,��,5.8,��
2019/05/28,04:10,0.198,0.183,0.306,0.288,0.276,0.152,0.093,��쐼,2.3,��
2019/05/28,04:20,0.200,0.182,0.308,0.288,0.277,0.153,0.095,�쐼,1.3,��
2019/05/28,04:30,0.198,0.183,0.307,0.290,0.276,0.153,0.095,��쐼,1.0,��
2019/05/28,04:40,0.201,0.183,0.309,0.288,0.277,0.151,0.095,��쐼,1.3,��
2019/05/28,04:50,0.200,0.183,0.307,0.289,0.277,0.154,0.095,���쐼,1.8,��
2019/05/28,05:00,0.200,0.183,0.308,0.288,0.278,0.152,0.095,��,2.0,��
2019/05/28,05:10,0.197,0.183,0.306,0.291,0.277,0.153,0.095,��,1.1,��
2019/05/28,05:20,0.201,0.184,0.308,0.287,0.278,0.151,0.095,��,0.7,��
2019/05/28,05:30,0.199,0.183,0.306,0.289,0.276,0.152,0.094,-,CALM,��
2019/05/28,05:40,0.199,0.184,0.309,0.287,0.278,0.152,0.094,���쐼,1.0,��
2019/05/28,05:50,0.199,0.182,0.307,0.287,0.276,0.153,0.095,�쐼,1.0,��
2019/05/28,06:00,0.199,0.184,0.307,0.286,0.278,0.153,0.095,�k��,1.1,��
2019/05/28,06:10,0.200,0.181,0.305,0.288,0.277,0.153,0.094,�쐼,0.6,��
2019/05/28,06:20,0.198,0.184,0.307,0.289,0.276,0.152,0.095,��쐼,1.3,��
2019/05/28,06:30,0.200,0.183,0.304,0.287,0.277,0.152,0.095,-,CALM,��
2019/05/28,06:40,0.198,0.183,0.307,0.289,0.274,0.153,0.095,-,CALM,��
2019/05/28,06:50,0.200,0.182,0.306,0.286,0.277,0.152,0.095,-,CALM,��
2019/05/28,07:00,0.199,0.182,0.305,0.288,0.278,0.152,0.095,�k�k��,1.2,��
2019/05/28,07:10,0.199,0.183,0.307,0.287,0.275,0.152,0.095,�k�k��,1.2,��
2019/05/28,07:20,0.199,0.182,0.305,0.286,0.278,0.153,0.095,�k��,1.3,��
2019/05/28,07:30,0.198,0.184,0.308,0.288,0.278,0.153,0.096,�k��,1.8,��
2019/05/28,07:40,0.200,0.182,0.305,0.285,0.275,0.152,0.095,�k�k��,2.3,��
2019/05/28,07:50,0.200,0.183,0.306,0.287,0.277,0.153,0.094,�k��,1.2,��
2019/05/28,08:00,0.197,0.182,0.308,0.288,0.278,0.152,0.095,�k�k��,1.4,��
2019/05/28,08:10,0.199,0.181,0.304,0.285,0.275,0.152,0.095,�k�k��,2.4,��
2019/05/28,08:20,0.197,0.184,0.307,0.288,0.274,0.153,0.093,�k,2.7,��
2019/05/28,08:30,0.199,0.182,0.307,0.288,0.278,0.151,0.095,�k,4.0,��
2019/05/28,08:40,0.198,0.180,0.304,0.285,0.278,0.151,0.094,�k,3.9,��
2019/05/28,08:50,0.197,0.183,0.306,0.287,0.274,0.153,0.094,�k,2.5,��
2019/05/28,09:00,0.199,0.181,0.305,0.288,0.272,0.152,0.095,�k,1.5,��
2019/05/28,09:10,0.197,0.181,0.303,0.285,0.277,0.151,0.093,�k�k��,1.6,��
2019/05/28,09:20,0.196,0.183,0.305,0.284,0.277,0.153,0.094,�k,1.4,��
2019/05/28,09:30,0.198,0.181,0.304,0.286,0.274,0.151,0.093,�k�k��,2.0,��
2019/05/28,09:40,0.196,0.182,0.304,0.287,0.273,0.148,0.093,�k�k��,2.0,��
2019/05/28,09:50,0.196,0.182,0.307,0.284,0.275,0.149,0.094,�k�k��,2.1,��
2019/05/28,10:00,0.198,0.180,0.305,0.285,0.276,-,0.094,�k�k��,2.6,��
2019/05/28,10:10,0.197,0.181,0.302,0.289,0.276,-,0.093,�k,1.5,��
2019/05/28,10:20,0.197,0.181,0.306,0.287,0.274,-,0.093,�k,2.5,��
2019/05/28,10:30,0.199,0.180,0.304,0.285,0.273,-,0.093,�k,1.8,��
2019/05/28,10:40,0.198,0.181,0.304,0.285,0.273,-,0.093,���k��,1.2,��
2019/05/28,10:50,0.196,0.183,0.301,0.290,0.274,-,0.093,���k��,0.8,��
2019/05/28,11:00,0.198,0.181,0.307,0.289,0.277,-,0.094,�k,1.5,��
2019/05/28,11:10,0.198,0.180,0.306,0.286,0.279,-,0.093,�k,2.3,��
2019/05/28,11:20,0.198,0.181,0.304,0.285,0.276,-,0.093,�k,2.4,��
2019/05/28,11:30,0.196,0.179,0.302,0.284,0.275,-,0.093,�k�k��,1.9,��
2019/05/28,11:40,0.195,0.181,0.302,0.285,0.275,-,0.092,�k�k��,1.0,��
2019/05/28,11:50,0.197,0.181,0.300,0.284,0.274,-,0.094,���k��,4.5,��
2019/05/28,12:00,0.200,0.180,0.302,0.283,0.274,-,0.093,���k��,2.8,��
2019/05/28,12:10,0.197,0.179,0.306,0.286,0.273,-,0.092,�k��,1.7,��
2019/05/28,12:20,0.196,0.180,0.307,0.289,0.273,-,0.093,�k��,2.7,��
2019/05/28,12:30,0.196,0.183,0.305,0.286,0.271,-,0.093,�k�k��,1.6,��
2019/05/28,12:40,0.199,0.180,0.303,0.285,0.276,-,0.093,�k�k��,2.0,��
2019/05/28,12:50,0.198,0.181,0.306,0.286,0.278,-,0.093,�k��,2.3,��
2019/05/28,13:00,0.196,0.182,0.305,0.289,0.277,-,0.093,�k��,2.8,��
2019/05/28,13:10,0.199,0.181,0.304,0.287,0.275,-,0.093,�k��,1.7,��
2019/05/28,13:20,0.198,0.181,0.303,0.285,0.272,-,0.093,���k��,1.9,��
2019/05/28,13:30,0.197,0.180,0.308,0.287,0.272,-,0.093,�k�k��,1.8,��
2019/05/28,13:40,0.198,0.182,0.305,0.289,0.278,-,0.093,�k�k��,3.0,��
2019/05/28,13:50,0.200,0.182,0.305,0.287,0.278,-,0.094,�k,1.8,��
2019/05/28,14:00,0.199,0.180,0.303,0.285,0.277,-,0.093,�k�k��,2.2,��
2019/05/28,14:10,0.196,0.181,0.303,0.284,0.275,-,0.093,�쓌,2.3,��
2019/05/28,14:20,0.197,0.181,0.303,0.284,0.275,-,0.093,�k,3.0,��
2019/05/28,14:30,0.197,0.181,0.303,0.284,0.275,-,0.094,�k,2.2,��
2019/05/28,14:40,0.197,0.181,0.301,0.285,0.274,-,0.092,�k,3.4,��
2019/05/28,14:50,0.196,0.180,0.304,0.289,0.274,0.151,0.093,�k,3.2,��
2019/05/28,15:00,0.201,0.181,0.309,0.290,0.274,0.150,0.092,�k�k��,4.4,��
2019/05/28,15:10,0.200,0.184,0.306,0.287,0.274,0.151,0.093,�k�k��,3.1,��
2019/05/28,15:20,0.197,0.182,0.306,0.285,0.273,0.152,0.094,�k�k��,3.4,�L
2019/05/28,15:30,0.197,0.182,0.303,0.286,0.276,0.152,0.094,�k��,3.7,�L
2019/05/28,15:40,0.200,0.180,0.307,0.290,0.278,0.151,0.094,�k�k��,3.2,�L
2019/05/28,15:50,0.199,0.183,0.308,0.288,0.277,0.152,0.093,�k�k��,3.5,�L
2019/05/28,16:00,0.198,0.182,0.307,0.285,0.275,0.152,0.093,�k��,1.7,��
2019/05/28,16:10,0.196,0.181,0.302,0.287,0.274,0.152,0.094,�k�k��,1.6,��
2019/05/28,16:20,0.198,0.180,0.305,0.290,0.273,0.151,0.093,�k�k��,2.6,��
2019/05/28,16:30,0.199,0.183,0.308,0.288,0.278,0.152,0.093,�k�k��,3.3,��
2019/05/28,16:40,0.197,0.183,0.305,0.285,0.277,0.151,0.093,�k,3.3,��
2019/05/28,16:50,0.196,0.181,0.303,0.287,0.275,0.151,0.093,�k�k��,3.0,��
2019/05/28,17:00,0.199,0.181,0.307,0.289,0.272,0.152,0.093,�k�k��,1.8,��
2019/05/28,17:10,0.197,0.183,0.306,0.285,0.278,0.151,0.095,�k�k��,2.0,��
2019/05/28,17:20,0.197,0.181,0.303,0.285,0.277,0.150,0.093,�k�k��,1.9,��
2019/05/28,17:30,0.200,0.183,0.308,0.289,0.273,0.152,0.093,�k,1.7,��
2019/05/28,17:40,0.197,0.182,0.307,0.286,0.276,0.151,0.094,�k,1.1,��
2019/05/28,17:50,0.198,0.181,0.304,0.286,0.278,0.151,0.093,�k�k��,1.2,��
2019/05/28,18:00,0.200,0.182,0.307,0.288,0.276,0.153,0.093,�k��,1.4,��
2019/05/28,18:10,0.197,0.180,0.306,0.286,0.276,0.151,0.093,�k��,1.4,��
2019/05/28,18:20,0.199,0.182,0.305,0.288,0.276,0.151,0.094,�k��,1.0,��
2019/05/28,18:30,0.198,0.182,0.308,0.289,0.275,0.152,0.094,�k,0.6,��
2019/05/28,18:40,0.198,0.181,0.305,0.286,0.274,0.150,0.093,�k��,1.3,��
2019/05/28,18:50,0.200,0.181,0.305,0.290,0.278,0.151,0.094,�k�k��,1.1,��
2019/05/28,19:00,0.197,0.181,0.307,0.288,0.275,0.151,0.093,�k��,1.5,��
2019/05/28,19:10,0.197,0.181,0.305,0.285,0.275,0.151,0.094,�k�k��,2.1,��
2019/05/28,19:20,0.198,0.181,0.307,0.288,0.276,0.152,0.094,�k,2.1,��
2019/05/28,19:30,0.199,0.182,0.306,0.286,0.275,0.151,0.093,�k�k��,2.4,��
2019/05/28,19:40,0.200,0.183,0.307,0.287,0.278,0.153,0.094,�k�k��,3.2,��
2019/05/28,19:50,0.198,0.183,0.308,0.289,0.277,0.152,0.094,�k,2.8,��
2019/05/28,20:00,0.198,0.183,0.306,0.287,0.275,0.152,0.094,�k,2.5,��
2019/05/28,20:10,0.198,0.182,0.308,0.290,0.278,0.152,0.095,�k�k��,2.3,��
2019/05/28,20:20,0.197,0.184,0.306,0.288,0.277,0.152,0.094,�k,1.9,��
2019/05/28,20:30,0.201,0.182,0.306,0.289,0.274,0.152,0.094,�k,1.8,��
2019/05/28,20:40,0.199,0.183,0.307,0.289,0.279,0.151,0.094,�k�k��,1.5,��
2019/05/28,20:50,0.198,0.183,0.305,0.286,0.276,0.152,0.094,�k�k��,1.5,�L
2019/05/28,21:00,0.198,0.183,0.307,0.289,0.275,0.152,0.094,�k�k��,1.6,��
2019/05/28,21:10,0.197,0.182,0.306,0.287,0.278,0.151,0.093,�k,1.5,��
2019/05/28,21:20,0.199,0.182,0.305,0.287,0.274,0.152,0.094,�k��,1.5,��
2019/05/28,21:30,0.199,0.183,0.308,0.290,0.276,0.152,0.094,�k�k��,0.8,��
2019/05/28,21:40,0.197,0.181,0.307,0.286,0.277,0.153,0.094,�k�k��,0.7,��
2019/05/28,21:50,0.200,0.184,0.307,0.289,0.273,0.152,0.093,�k�k��,1.3,��
2019/05/28,22:00,0.198,0.183,0.306,0.288,0.278,0.152,0.094,�k�k��,1.7,��
2019/05/28,22:10,0.198,0.182,0.308,0.288,0.277,0.152,0.094,�k,1.2,��
2019/05/28,22:20,0.199,0.182,0.307,0.289,0.273,0.151,0.094,�k,1.7,�L
2019/05/28,22:30,0.198,0.182,0.307,0.286,0.279,0.152,0.095,�k,2.5,�L
2019/05/28,22:40,0.200,0.183,0.307,0.289,0.276,0.152,0.094,�k�k��,2.2,�L
2019/05/28,22:50,0.198,0.182,0.306,0.287,0.275,0.152,0.095,�k�k��,2.0,��
2019/05/28,23:00,0.198,0.183,0.310,0.289,0.277,0.152,0.093,�k��,1.4,��
2019/05/28,23:10,0.198,0.183,0.307,0.288,0.274,0.153,0.094,�k�k��,2.1,��
2019/05/28,23:20,0.198,0.184,0.307,0.288,0.277,0.152,0.094,�k�k��,1.7,��
2019/05/28,23:30,0.199,0.183,0.306,0.288,0.276,0.153,0.094,�k�k��,2.2,��
2019/05/28,23:40,0.198,0.183,0.307,0.287,0.276,0.152,0.094,�k,2.8,��
2019/05/28,23:50,0.200,0.183,0.308,0.291,0.278,0.152,0.094,�k�k��,3.2,��
